Weather in Salvador

Brazil     12°59′59″S   38°27′57″W
temp.,
°C
wind,
m/s
gust,
m/s
humid.,
%
clouds,
%
prec.,
mm/h
press.,
hPa
HPBL,
m
27 january, wed
wed2700:00+26e6876100 1.1 1014940
03:00+26e7877100 3.1 1013951
06:00+26e6777100 0.9 1014808
09:00+27ese6775100 1.6 1015972
12:00+26ese667579 1.4 1014734
15:00+27ese787684 3.9 1012823
18:00+27e787682 0.4 1012925
21:00+27ese787591 2.1 1013947
28 january, thu
thu2800:00+26ese677745 0.1 1013832
03:00+26e457632 1.0 1012557
06:00+26e677783 4.0 1012761
09:00+27ese557591 4.8 1015753
12:00+27ese6674100 0.1 1013832
15:00+27se7776100 0.2 1011839
18:00+27e6774100 0.0 1011934
21:00+26e677795 0.3 1013848
29 january, fri
fri2900:00+26e6678100 0.3 1013833
03:00+26e5678100 0.6 1012721
06:00+26ene3474100 0.1 1013724
09:00+26nne127096 0.1 1015727
12:00+27ese5670100 0.0 1014687
15:00+27ese677599 0.0 1012730
18:00+27e7876100 0.0 1012882
21:00+27e677465 0.0 1014885
30 january, sat
sat3000:00+26e567652 0.0 1014893
03:00+26e557664 0.0 1013744
06:00+26ese4578100 0.1 1014737
09:00+27ese457567 1.3 1015748
12:00+27se6775100 0.3 1014699
15:00+27ese7776100 0.3 1012889
18:00+27e7776100 0.1 1013887
21:00+27ese7879100 0.3 1014854
31 january, sun
sun3100:00+26ese7880100 2.3 1014717
03:00+26e567993 5.1 1013655
06:00+26ese567949 3.4 1014598
09:00+27ese667744 4.3 1015808
12:00+27ese667520 0.2 1014758
15:00+27ese777444 0.2 1012796
18:00+27ese677582 0.0 1012908
21:00+27ese677891 0.0 1013858